METEOR-M - Orbit

View from above orbital plane
View from above orbital plane
View from above satellite
View from above satellite

Ground track
Ground track

The orbit data is extracted from the following two-line orbital elements,

1 35865U 09049A   13145.07451384  .00000008  00000-0  23198-4 0  4782
2 35865 098.6040 198.0633 0002998 126.7379 233.4076 14.21886543191186
Epoch (UTC): 25 May 2013 01:47:17
Eccentricity: 0.0002998
inclination: 98.6040°
perigee height: 817 km
apogee height: 821 km
right ascension of ascending node: 198.0633°
argument of perigee: 126.7379°
revolutions per day: 14.21886543
mean anomaly at epoch: 233.4076°
orbit number at epoch: 19118

The dashed part of the orbit path shows where the satellite is in the earth's shadow,  

Developed and maintained by Chris Peat, Heavens-Above GmbH. Please read the updated FAQ before sending e-mail. Imprint. DLR